Find Starlink 11565

NORAD ID: 62912 Int'l Des: 2025-027 Owner: SPXS Country: US Constellation: starlink operational
LEOCIRCULAR

当前视图

正在加载3D地球...

About Starlink 11565

Starlink 11565 (NORAD 62912) is a starlink constellation satellite (v2 mini d2c) launched Feb 8, 2025 by SPXS of US. It operates in LEO, CIRCULAR orbit with a mass of 960.00 kg.

关于 Starlink 11565

正在加载描述...

即将过境

Passes for default location (London). Set your location on the main map for personalized predictions.

高度历史

Loading altitude history...

两行轨道根数

1 62912U 25027F 26170.14884338 .00184488 00000-0 14071-2 0 9999
2 62912 43.0019 95.6862 0002262 264.3406 95.7204 15.70881405 79116
Epoch: Jun 19, 2026 • Age: 26 hours

当前状态

高度 359.8 km
速度 7.70 km/s
星下点 43.14°N, 179.76°W
发射日期 Feb 8, 2025
运行时间 1.3 years
类型 internet

技术详情

分类 Payload
质量 960.00 kg
干质量 910.00 kg
总质量 960.00 kg
长度 0.30 m
直径 4.10 m
跨度 29.00 m
形状 Box + pan
制造商 SPXS
平台类型 Starlink V2MD
阶段状态 In Orbit
所有者/国家 SPXS/US

Most Searched